Regional Weather Roundup
Issued by NWS Green Bay, WI

Home | Current Version | Previous Version | Text Only | Print | Product List | Glossary On
Versions: 1 2 3 4 5 6 7 8 9 10 11 12 13 14 15 16 17 18 19 20 21 22 23 24 25 26 27 28 29 30 31 32 33 34 35 36 37 38 39 40 41 42 43 44 45 46 47 48 49 50
000
ASUS43 KGRB 290100
RWRGRB

NORTH-CENTRAL AND NORTHEAST WISCONSIN REGIONAL WEATHER ROUNDUP
NATIONAL WEATHER SERVICE GREEN BAY WI
800 PM CDT TUE JUL 28 2015

WIZ005-009-010>012-018-019-290200-
NORTH CENTRAL WISCONSIN

CITY           SKY/WX    TMP DP  RH WIND       PRES   REMARKS
IRONWOOD       MOCLDY    81  70  69 S8        29.80R
MANITOWISH WTR NOT AVBL
ARBOR VITAE    NOT AVBL
EAGLE RIVER    NOT AVBL
LAND O LAKES   NOT AVBL
RHINELANDER    MOCLDY    78  67  68 S8        29.91R
PHILLIPS       CLOUDY    77  70  77 S9        29.87S
ANTIGO         NOT AVBL
TOMAHAWK       NOT AVBL
MERRILL        NOT AVBL
$$

WIZ013-073-290200-
NORTHEAST WISCONSIN

CITY           SKY/WX    TMP DP  RH WIND       PRES   REMARKS
IRON MOUNTAIN  CLEAR     78  63  59 SE8       29.88F
MARINETTE      PTCLDY    79  63  57 S6        29.89S
$$

WIZ017-030-035>037-045-290200-
CENTRAL WISCONSIN

CITY           SKY/WX    TMP DP  RH WIND       PRES   REMARKS
MEDFORD        NOT AVBL
WAUSAU         PTCLDY    80  69  69 S9        29.88R
MOSINEE        NOT AVBL
MARSHFIELD     MOCLDY    79  70  74 S7        29.90R
WISC RAPIDS    PTCLDY    80  68  66 SW12      29.91R
STEVENS POINT  NOT AVBL
WAUPACA        NOT AVBL
SHAWANO        NOT AVBL
CLINTONVILLE   CLOUDY    81  66  61 S7        29.89R
$$

WIZ038-039-048-051-290200-
FOX VALLEY

CITY           SKY/WX    TMP DP  RH WIND       PRES   REMARKS
NWS GREEN BAY  PTCLDY    79  66  64 S8        29.90S
APPLETON       MOCLDY    79  64  61 SE9       29.91S
OSHKOSH        PTCLDY    77  68  73 S6        29.90R
FOND DU LAC    MOCLDY    80  69  69 S7        29.91R
$$

WIZ022-050-052-290200-
EAST CENTRAL WISCONSIN

CITY           SKY/WX    TMP DP  RH WIND       PRES   REMARKS
STURGEON BAY   PTCLDY    75  63  64 S10       29.93F
MANITOWOC      NOT AVBL
SHEBOYGAN      PTCLDY    76  66  71 S6        29.92F
$$

LMZ563-521-522-541>543-290200-
LAKESHORE

STATION/POSITION TIME  TEMP    WIND        PRES    VSBY  WAVE
                       AIR SEA DIR/SP/G                  HT/PER
                 (UTC) (F)     (DEG/KT/KT) (MB)    (MI)  (FT/S)
SHEBOYGAN LKSHOR 0000   75     170/  5/  6 1013.5F
KEWAUNEE LKSHORE 0000   68     180/  7/  8 1013.1S
ALGOMA MARINA    0012          210/ 10/ 11   N/A
TWO RIVERS CG    0030   70 72              1013.1      6   2
NORTHPORT PIER   0000   76     160/  3/ 10 1012.9S
N MID LAKE BUOY  2350   72 71  170/  6/  6 1012.7S         0
S GREEN BAY BUOY 0000   79 76  170/ 16/ 17 1014.1S
SISTER BAY LKSHO 0014   80     170/ 11/ 13   N/A
STURGEON BAY CG  0008   73     180/ 10     1009.0      6   1
CHAMBERS ISLAND  0000   79     150/  4/ 11 1012.2S
MENOMINEE LKSHOR 0000   77     170/  9/ 12 1013.1F
$$


USA.gov is the U.S. government's official web portal to all federal, state and local government web resources and services.